When you browse on this site, cookies collect data to enhance your experience and personalize the content and advertising you see.
Visit our Privacy Policy to learn more. By continuing to use the site, you agree to this use of cookies and data.
  • In Hungary
  • List of Countries
  • For 7 days
  • Water Temperature
  • Satellite Maps
  • Weather Map
  • News
  • Weather Widgets
  • user-avatar
    Login

    Hourly Weather Zhezqazghan

    Today, 17 January, Thursday

    Time Temperature Precipitation Wind Pressure Humidity
    00:00 +1°C° 0 mm 2 mps 750 mmHg 71%
    01:00 +1°C° 0 mm 2 mps 749 mmHg 70%
    02:00 +1°C° 0 mm 2 mps 749 mmHg 70%
    03:00 +1°C° 0 mm 2 mps 749 mmHg 70%
    04:00 +1°C° 0 mm 3 mps 749 mmHg 77%
    05:00 +1°C° 0 mm 3 mps 749 mmHg 77%
    06:00 +1°C° 0 mm 3 mps 749 mmHg 77%
    07:00 +1°C° 0 mm 3 mps 748 mmHg 77%
    08:00 +3°C° 0 mm 3 mps 748 mmHg 70%
    09:00 +5°C° 0 mm 3 mps 748 mmHg 64%
    10:00 +7°C° 0 mm 3 mps 748 mmHg 55%
    11:00 +8°C° 0 mm 3 mps 748 mmHg 53%
    12:00 +8°C° 0 mm 4 mps 747 mmHg 51%
    13:00 +10°C° 0 mm 4 mps 747 mmHg 50%
    14:00 +8°C° 0 mm 4 mps 746 mmHg 52%
    15:00 +7°C° 0 mm 4 mps 746 mmHg 54%
    16:00 +6°C° 0 mm 4 mps 745 mmHg 59%
    17:00 +6°C° 0 mm 4 mps 745 mmHg 57%
    18:00 +6°C° 0 mm 4 mps 744 mmHg 54%
    19:00 +5°C° 0 mm 4 mps 744 mmHg 51%
    20:00 +5°C° 0 mm 4 mps 744 mmHg 48%
    21:00 +5°C° 0 mm 4 mps 743 mmHg 45%
    22:00 +5°C° 0 mm 4 mps 743 mmHg 41%
    23:00 +5°C° 0 mm 4 mps 742 mmHg 39%

    Tomorrow, 18 January, Friday

    Time Temperature Precipitation Wind Pressure Humidity
    00:00 +5°C° 0 mm 4 mps 742 mmHg 37%
    01:00 +5°C° 0 mm 4 mps 741 mmHg 35%
    02:00 +5°C° 0 mm 4 mps 741 mmHg 34%
    03:00 +5°C° 0 mm 4 mps 740 mmHg 33%
    04:00 +5°C° 0 mm 5 mps 740 mmHg 33%
    05:00 +5°C° 0 mm 4 mps 739 mmHg 32%
    06:00 +5°C° 0 mm 4 mps 739 mmHg 31%
    07:00 +5°C° 0 mm 4 mps 738 mmHg 30%
    08:00 +6°C° 0 mm 4 mps 738 mmHg 30%
    09:00 +8°C° 0 mm 3 mps 738 mmHg 29%
    10:00 +9°C° 0 mm 2 mps 739 mmHg 29%
    11:00 +9°C° 0 mm 3 mps 738 mmHg 29%
    12:00 +10°C° 0 mm 3 mps 738 mmHg 30%
    13:00 +10°C° 0 mm 4 mps 738 mmHg 30%
    14:00 +8°C° 0.3 mm 5 mps 738 mmHg 38%
    15:00 +8°C° 0.3 mm 6 mps 738 mmHg 45%
    16:00 +8°C° 0.3 mm 7 mps 738 mmHg 53%
    17:00 +7°C° 0 mm 8 mps 739 mmHg 50%
    18:00 +7°C° 0 mm 8 mps 739 mmHg 47%
    19:00 +6°C° 0 mm 9 mps 739 mmHg 45%
    20:00 +6°C° 0 mm 8 mps 740 mmHg 54%
    21:00 +5°C° 0 mm 8 mps 741 mmHg 62%
    22:00 +5°C° 0 mm 7 mps 742 mmHg 71%
    23:00 +4°C° 0 mm 7 mps 742 mmHg 72%

    Day after tomorrow, 19 January, Saturday

    Time Temperature Precipitation Wind Pressure Humidity
    00:00 +4°C° 0 mm 7 mps 742 mmHg 73%
    01:00 +3°C° 0 mm 7 mps 743 mmHg 74%
    02:00 +3°C° 0 mm 7 mps 743 mmHg 74%
    03:00 +1°C° 0 mm 8 mps 744 mmHg 74%
    04:00 +1°C° 0 mm 9 mps 744 mmHg 74%
    05:00 +1°C° 0 mm 8 mps 744 mmHg 76%
    06:00 0°C° 0 mm 8 mps 745 mmHg 78%
    07:00 0°C° 0 mm 7 mps 745 mmHg 80%
    08:00 +2°C° 0 mm 7 mps 746 mmHg 75%
    09:00 +3°C° 0 mm 7 mps 746 mmHg 70%
    10:00 +2°C° 0 mm 8 mps 746 mmHg 66%
    11:00 +4°C° 0 mm 8 mps 746 mmHg 62%
    12:00 +5°C° 0 mm 8 mps 746 mmHg 58%
    13:00 +6°C° 0 mm 8 mps 746 mmHg 55%
    14:00 +5°C° 0 mm 7 mps 746 mmHg 54%
    15:00 +5°C° 0 mm 6 mps 746 mmHg 54%
    16:00 +6°C° 0 mm 5 mps 746 mmHg 53%
    17:00 +5°C° 0 mm 4 mps 746 mmHg 56%
    18:00 +5°C° 0 mm 4 mps 746 mmHg 58%
    19:00 +4°C° 0 mm 3 mps 746 mmHg 61%
    20:00 +4°C° 0.1 mm 3 mps 746 mmHg 62%
    21:00 +4°C° 0.1 mm 3 mps 746 mmHg 62%
    22:00 +4°C° 0.1 mm 3 mps 745 mmHg 62%
    23:00 +4°C° 0.4 mm 3 mps 746 mmHg 64%

    20 January, Sunday

    Time Temperature Precipitation Wind Pressure Humidity
    00:00 +3°C° 0.4 mm 3 mps 746 mmHg 66%
    01:00 +3°C° 0.4 mm 3 mps 746 mmHg 68%
    02:00 +3°C° 0.2 mm 3 mps 746 mmHg 69%
    03:00 +1°C° 0.2 mm 4 mps 746 mmHg 71%
    04:00 +1°C° 0.2 mm 4 mps 746 mmHg 72%
    05:00 +1°C° 0 mm 4 mps 746 mmHg 73%
    06:00 0°C° 0 mm 5 mps 746 mmHg 74%
    07:00 0°C° 0 mm 5 mps 746 mmHg 74%
    08:00 -1°C° 0 mm 6 mps 747 mmHg 71%
    09:00 -1°C° 0 mm 7 mps 747 mmHg 69%
    10:00 -1°C° 0 mm 8 mps 747 mmHg 66%
    11:00 0°C° 0 mm 8 mps 747 mmHg 66%
    12:00 0°C° 0 mm 8 mps 747 mmHg 65%
    13:00 0°C° 0 mm 8 mps 746 mmHg 65%
    14:00 0°C° 0.1 mm 8 mps 747 mmHg 66%
    15:00 0°C° 0.1 mm 8 mps 747 mmHg 68%
    16:00 0°C° 0.1 mm 7 mps 747 mmHg 69%
    17:00 -1°C° 0.1 mm 7 mps 747 mmHg 72%
    18:00 -1°C° 0.1 mm 7 mps 748 mmHg 74%
    19:00 -1°C° 0.1 mm 7 mps 748 mmHg 77%
    20:00 -2°C° 0.1 mm 6 mps 749 mmHg 79%
    21:00 -2°C° 0.1 mm 6 mps 749 mmHg 81%
    22:00 -2°C° 0.1 mm 6 mps 750 mmHg 84%
    23:00 -3°C° 0.1 mm 6 mps 750 mmHg 85%

    21 January, Monday

    Time Temperature Precipitation Wind Pressure Humidity
    00:00 -3°C° 0.1 mm 6 mps 751 mmHg 86%
    01:00 -2°C° 0.1 mm 5 mps 751 mmHg 87%
    02:00 -2°C° 0 mm 5 mps 751 mmHg 87%
    03:00 -2°C° 0 mm 4 mps 752 mmHg 87%
    04:00 -2°C° 0 mm 4 mps 752 mmHg 87%
    05:00 -2°C° 0 mm 3 mps 753 mmHg 87%
    06:00 -2°C° 0 mm 3 mps 753 mmHg 87%
    07:00 -2°C° 0 mm 2 mps 754 mmHg 87%
    08:00 -1°C° 0 mm 2 mps 754 mmHg 84%
    09:00 -1°C° 0 mm 2 mps 754 mmHg 82%
    10:00 -1°C° 0 mm 2 mps 755 mmHg 80%
    11:00 -1°C° 0 mm 2 mps 754 mmHg 77%
    12:00 +2°C° 0 mm 1 mps 754 mmHg 74%
    13:00 +2°C° 0 mm 1 mps 754 mmHg 71%
    14:00 +2°C° 0 mm 1 mps 754 mmHg 72%
    15:00 +2°C° 0 mm 1 mps 754 mmHg 73%
    16:00 +2°C° 0 mm 1 mps 754 mmHg 74%
    17:00 +1°C° 0 mm 2 mps 754 mmHg 76%
    18:00 -1°C° 0 mm 2 mps 754 mmHg 78%
    19:00 -1°C° 0 mm 3 mps 755 mmHg 80%
    20:00 -1°C° 0 mm 3 mps 754 mmHg 81%
    21:00 -1°C° 0 mm 3 mps 754 mmHg 82%
    22:00 -1°C° 0 mm 3 mps 754 mmHg 83%
    23:00 -1°C° 0 mm 3 mps 753 mmHg 83%

    22 January, Tuesday

    Time Temperature Precipitation Wind Pressure Humidity
    00:00 -1°C° 0 mm 3 mps 753 mmHg 83%
    01:00 -1°C° 0 mm 3 mps 753 mmHg 83%
    02:00 -1°C° 0 mm 3 mps 753 mmHg 83%
    03:00 -1°C° 0 mm 3 mps 752 mmHg 83%
    04:00 -2°C° 0 mm 3 mps 752 mmHg 83%
    05:00 -2°C° 0 mm 3 mps 752 mmHg 83%
    06:00 -2°C° 0 mm 3 mps 752 mmHg 83%
    07:00 -2°C° 0 mm 3 mps 752 mmHg 83%
    08:00 -1°C° 0 mm 3 mps 752 mmHg 78%
    09:00 +1°C° 0 mm 3 mps 751 mmHg 72%
    10:00 +2°C° 0 mm 3 mps 751 mmHg 67%
    11:00 +2°C° 0 mm 3 mps 751 mmHg 64%
    12:00 +4°C° 0 mm 2 mps 750 mmHg 62%
    13:00 +5°C° 0 mm 2 mps 750 mmHg 59%
    14:00 +4°C° 0 mm 2 mps 749 mmHg 63%
    15:00 +3°C° 0 mm 2 mps 749 mmHg 66%
    16:00 +3°C° 0 mm 2 mps 749 mmHg 70%
    17:00 +2°C° 0 mm 2 mps 749 mmHg 72%
    18:00 0°C° 0 mm 3 mps 749 mmHg 73%
    19:00 0°C° 0 mm 3 mps 749 mmHg 75%
    20:00 +1°C° 0 mm 2 mps 749 mmHg 75%
    21:00 -1°C° 0 mm 2 mps 749 mmHg 75%
    22:00 -1°C° 0 mm 2 mps 749 mmHg 75%
    23:00 -1°C° 0 mm 2 mps 749 mmHg 76%
    Show more